Погода в Верхнем Нергене

Россия / Хабаровский край     49°50′38″N   136°47′51″E
В апреле 2022 года жителям России запретили посещать сайт meteo.paraplan.net по решению Генеральной прокуратуры. Аудитория сайта уменьшилась в 10 раз. Владельцы сайта не видят смысла в поддержке погодного сервера в таких условиях. Сайт будет закрыт в октябре.
темп.,
°C
ветер,
м/с
пор.,
м/с
влажн.,
%
обл.,
%
осадки,
мм/ч
давл.,
гПа
погр.,
м
30 сентября, пт
пт3001:00+10ю3675100 0.1 1008177
04:00+10ю3673100 0.1 1006192
07:00+9ююз357885 0.1 1006231
10:00+11зюз5776100 0.1 1006497
13:00+13зюз576749 0.0 1007678
16:00+14з356413 0.0 1007677
19:00+12в117698 0.0 100914
22:00+10св2483100 0.1 100978
1 октября, сб
сб101:00+9всв4695100 9.6 1008386
04:00+9ссв5889100 10.2 1009492
07:00+7ссв91389100 1.1 1012669
10:00+7ссв7108595 1.1 1015731
13:00+10ссв566917 0.0 1017898
16:00+11ссв226387 0.0 1019709
19:00+10юв2370100 0.0 102159
22:00+8ю22766 0.0 102349
2 октября, вс
вс201:00+7юз12783 0.0 102396
04:00+6юз238227 0.0 1023112
07:00+6ю3584100 0.0 1023162
10:00+8ююз5982100 0.0 1023406
13:00+11ююз686996 0.0 1020617
16:00+12юз6970100 0.0 1018524
19:00+9ююз4990100 1.7 1018528
22:00+9юз3789100 1.9 1016234
3 октября, пн
пн301:00+9ю4789100 0.1 1014226
04:00+10юз2589100 0.2 1012190
07:00+9ююз3896100 1.7 1012260
10:00+10зюз3696100 2.6 1012211
13:00+11ссз1293100 0.3 1011130
16:00+10св4697100 3.1 1010236
19:00+8ссв71292100 4.8 1009566
22:00+7с91592100 8.6 1007678
4 октября, вт
вт401:00+6с81392100 7.1 1005684
04:00+6с71092100 11.8 1004943
07:00+5ссв4790100 1.1 1004770
10:00+5ссв5783100 1.3 1004741
13:00+4св5686100 0.4 1003776
16:00+5ссв688082 0.8 1002956
19:00+3с7118899 0.2 1004881
22:00+3с81174100 0.2 1005983